GW2259 Weather Reports


Display with metric or nautical units.
time (UTC)temp
F
wind
direction
speed
MPH
gust
MPH
rain 1hr
in
rain 24hr
in
rain mn
in
humidity
%
barometer
mb
20260505001537 84 196 7.0 13.0 0.00 0.00 0.00 54 1008.1
20260505000037 84 228 8.0 14.0 0.00 0.00 0.00 53 1008.1
20260504234535 85 198 8.0 13.0 0.00 0.00 0.00 53 1007.9
20260504233036 85 199 8.0 16.0 0.00 0.00 0.00 53 1008.0
20260504231533 84 193 7.0 15.0 0.00 0.00 0.00 54 1008.1
20260504230037 85 190 9.0 17.0 0.00 0.00 0.00 53 1008.1
20260504224535 85 193 10.0 17.0 0.00 0.00 0.00 53 1008.1
20260504223046 85 204 9.0 16.0 0.00 0.00 0.00 52 1008.2
20260504221535 85 184 12.0 18.0 0.00 0.00 0.00 51 1008.3
20260504220035 85 160 9.0 18.0 0.00 0.00 0.00 51 1008.3
20260504214535 84 136 8.0 17.0 0.00 0.00 0.00 52 1008.6
20260504213036 84 210 10.0 16.0 0.00 0.00 0.00 52 1008.9
20260504211546 84 195 8.0 17.0 0.00 0.00 0.00 52 1009.2
20260504210041 84 225 8.0 16.0 0.00 0.00 0.00 53 1009.3
20260504204533 83 174 8.0 17.0 0.00 0.00 0.00 54 1009.3
20260504203032 83 229 8.0 14.0 0.00 0.00 0.00 53 1009.8
20260504201536 82 186 8.0 18.0 0.00 0.00 0.00 53 1010.1
20260504200036 82 191 6.0 14.0 0.00 0.00 0.00 54 1010.4
20260504194537 81 184 9.0 18.0 0.00 0.00 0.00 54 1010.6
20260504193039 81 203 8.0 15.0 0.00 0.00 0.00 55 1011.0
20260504191542 80 229 8.0 15.0 0.00 0.00 0.00 56 1011.3
20260504190044 79 231 9.0 16.0 0.00 0.00 0.00 57 1011.4
20260504184546 78 199 9.0 16.0 0.00 0.00 0.00 58 1011.5
20260504183035 78 215 10.0 16.0 0.00 0.00 0.00 57 1011.6
20260504181536 77 194 8.0 16.0 0.00 0.00 0.00 61 1011.7
20260504180039 77 176 8.0 17.0 0.00 0.00 0.00 60 1011.8
20260504174537 76 211 8.0 20.0 0.00 0.00 0.00 63 1012.2
20260504173035 75 226 8.0 17.0 0.00 0.00 0.00 63 1012.3
20260504171537 75 204 10.0 16.0 0.00 0.00 0.00 64 1012.4
20260504081535 59 173 5.0 8.0 0.00 0.00 0.00 75 1014.0
20260504044535 59 0 0.0 0.0 0.00 0.00 0.00 72 1016.5
20260504043037 60 0 0.0 2.0 0.00 0.00 0.00 73 1016.3
20260504041536 60 0 0.0 3.0 0.00 0.00 0.00 72 1016.5
20260504040034 61 146 2.0 5.0 0.00 0.00 0.00 68 1016.7
20260504034531 62 152 3.0 5.0 0.00 0.00 0.00 65 1016.7
20260504033033 63 184 3.0 5.0 0.00 0.00 0.00 63 1016.6
20260504031537 63 174 3.0 8.0 0.00 0.00 0.00 62 1016.5
20260504030041 64 200 3.0 6.0 0.00 0.00 0.00 62 1016.5
20260504024532 64 156 4.0 7.0 0.00 0.00 0.00 61 1016.3
20260504023034 63 154 4.0 5.0 0.00 0.00 0.00 62 1016.3
20260504021537 64 152 3.0 5.0 0.00 0.00 0.00 61 1016.1
20260504020035 64 156 3.0 4.0 0.00 0.00 0.00 60 1016.2
20260504014540 65 176 3.0 5.0 0.00 0.00 0.00 58 1016.1
20260504013041 65 148 3.0 4.0 0.00 0.00 0.00 57 1016.1
20260504011540 68 159 3.0 4.0 0.00 0.00 0.00 51 1016.1
20260504010033 70 148 3.0 5.0 0.00 0.00 0.00 47 1016.1
20260504004536 70 149 4.0 7.0 0.00 0.00 0.00 46 1016.0
20260504003035 71 168 4.0 8.0 0.00 0.00 0.00 46 1015.9